Regional Weather Roundup
Issued by NWS Boston, MA

Home | Current Version | Previous Version | Text Only | Print | Product List | Glossary On
Versions: 1 2 3 4 5 6 7 8 9 10 11 12 13 14 15 16 17 18 19 20 21 22 23 24 25 26 27
000
ASUS41 KBOX 211310
RWRBOX

REGIONAL WEATHER ROUNDUP
NATIONAL WEATHER SERVICE BOSTON/NORTON MA
900 AM EDT SAT APR 21 2018

NOTE:  "FAIR" INDICATES FEW OR NO CLOUDS BELOW 12,000 FEET WITH NO
SIGNIFICANT WEATHER AND/OR OBSTRUCTIONS TO VISIBILITY.

MAZALL-211400-
EASTERN MASSACHUSETTS

CITY           SKY/WX    TMP DP  RH WIND       PRES   REMARKS
BOSTON         FAIR      46  26  45 W13       30.30F
BEVERLY        FAIR      47  28  47 NW9       30.28F
LAWRENCE       FAIR      46  26  45 NW12      30.31S
BEDFORD        FAIR      47  25  42 NW9G18    30.29F
BLUE HILL        N/A     44  27  51 NW14G23   30.27F
NORWOOD        FAIR      48  28  46 NW10      30.31F
MARSHFIELD     FAIR      46  27  46 NW10G22   30.29S
PLYMOUTH       FAIR      47  27  45 NW15      30.30S
TAUNTON        FAIR      48  27  44 NW10G17   30.31S
NEW BEDFORD    FAIR      46  26  45 W8G16     30.30F
$$

MAZALL-211400-
CAPE COD AND THE ISLANDS

CITY           SKY/WX    TMP DP  RH WIND       PRES   REMARKS
FALMOUTH       FAIR      45  25  45 NW15G21   30.30
HYANNIS        FAIR      45  28  51 NW14      30.27F
CHATHAM        FAIR      45  30  55 VRB6G18   30.29S
PROVINCETOWN   FAIR      44  32  62 NW12      30.30R
NANTUCKET      FAIR      45  32  60 NW16      30.30S
MARTHAS VNYRD  FAIR      46  28  49 NW13G25   30.30F
$$

MAZALL-211400-
CENTRAL AND WESTERN MASSACHUSETTS

CITY           SKY/WX    TMP DP  RH WIND       PRES   REMARKS
WORCESTER      FAIR      39  25  57 W9        30.30S
FITCHBURG      FAIR      49  26  41 NW12      30.31F
ORANGE         FAIR      43  27  53 NW7       30.33F
SPRINGFIELD    SUNNY     42  26  54 W3        30.34
WESTFIELD      FAIR      45  27  49 NW8       30.34F
NORTH ADAMS    FAIR      38  26  62 VRB5      30.35S
PITTSFIELD     FAIR      38  25  59 W15       30.32S WCI  29
$$

RIZALL-211400-
RHODE ISLAND

CITY           SKY/WX    TMP DP  RH WIND       PRES   REMARKS
PROVIDENCE     FAIR      47  28  47 NW10      30.33F
NEWPORT        FAIR      45  29  53 NW12      30.32F
BLOCK ISLAND   FAIR      44  30  57 NW10      30.35S
SMITHFIELD     FAIR      44  26  49 MISG      30.32S
WESTERLY       FAIR      47  29  49 NW9       30.35S
$$

CTZALL-211400-
CONNECTICUT

CITY           SKY/WX    TMP DP  RH WIND       PRES   REMARKS
BRADLEY INTL   FAIR      45  26  47 N6        30.36S
HARTFORD       FAIR      46  28  49 N6        30.37F
BRIDGEPORT     FAIR      47  25  42 NW10      30.38F
DANBURY        FAIR      42  24  49 W6        30.39S
GROTON         FAIR      47  27  45 NW12      30.35S
NEW HAVEN      FAIR      46  26  45 NW12      30.37F
CHESTER        FAIR      46  25  42 NW8       30.35F
MERIDEN        FAIR      45  26  47 NW10      30.37S
WILLIMANTIC    FAIR      44  27  51 NW6G17    30.36S
OXFORD         FAIR      40  26  57 NW6       30.36F
$$

MEZ002-015-021-024-NHZ003-005-008-011-012-014-VTZ005-008-211400-
NORTHERN NEW ENGLAND

CITY           SKY/WX    TMP DP  RH WIND       PRES   REMARKS
PORTLAND ME    FAIR      46  25  43 NW17G29   30.25S
BANGOR ME      FAIR      44  29  55 NW17G23   30.18F
CONCORD NH     FAIR      45  26  47 NW7       30.29S
MANCHESTER NH  FAIR      47  23  38 NW10      30.28F
NASHUA NH      FAIR      45  25  45 NW10      30.30F
PORTSMOUTH NH  MOSUNNY   46  25  43 W8        30.26S
JAFFREY NH     FAIR      41  26  55 W13       30.29S
KEENE NH       FAIR      44  28  53 VRB3      30.32F
BURLINGTON VT  FAIR      44  24  45 NW9       30.33S
MT. WASHINGTON BLWGSNOW  14  14 100 NW47G62     N/A  VSB 1/16WCI -11
$$

NYZ052-076-211400-
EASTERN NEW YORK

CITY           SKY/WX    TMP DP  RH WIND       PRES   REMARKS
ALBANY         FAIR      44  27  51 NW10      30.38S
NEW YORK CITY  FAIR      45  28  51 NW12      30.41S
$$

ANZALL-211400-
MARINE OBSERVATIONS

STATION/POSITION TIME  TEMP    WIND        PRES    VSBY  WAVE
                       AIR SEA DIR/SP/G                  HT/PER
                 (UTC) (F)     (DEG/KT/KT) (MB)    (MI)  (FT/S)
BOSTON BUOY      1250   42 42  290/ 16/ 17 1025.0R         2/ 3
BUZZARDS BAY     1200   42     310/ 15/ 16 1027.5R
NANTUCKET SOUND  1150   41 42  310/ 14/ 17 1025.8          2/ 4
MASS BAY-STELLWA 1204   40 41              1023.9R         2/ 3
ISLE OF SHOALS   1300   43     290/ 14/ 15 1024.5F
S OF BLOCK IS    1243      41                N/A           3/ 4
$$

......................KEY.........................
  SKY/WX - SKY CONDITION/PRESENT WEATHER
  TMP    - TEMPERATURE IN FAHRENHEIT
  DWPT   - DEWPOINT IN FAHRENHEIT
  RH     - RELATIVE HUMIDITY IN PERCENT
  WIND   - DIRECTION AND SPEED IN MPH
  PRES   - MEAN SEA LEVEL PRESSURE IN INCHES OF HG
  WCI    - WIND CHILL INDEX
  VSB    - VISIBILITY IN MILES
  HX     - HEAT INDEX
  TC     - TEMPERATURE IN CELSIUS
  VRB    - VARIABLE WIND DIRECTION
  N/A    - NOT AVAILABLE




USA.gov is the U.S. government's official web portal to all federal, state and local government web resources and services.